User: anonymous   Login
Location: Newark
(52.4787°S, 179.0532°W)
Time: 02:52:37
(UTC+00:00)
Language:

Altair - Orbit

View from above orbital plane
View from above orbital plane
View from above satellite
View from above satellite

Ground track
Ground track

The orbit data is extracted from the following two-line orbital elements,

1    50U 60009B   19326.27036005 -.00000081  00000-0  49607-4 0  9994
2    50  47.2330  47.3968 0113009  65.4425 295.8095 12.20108878645261
Epoch (UTC): 22 November 2019 06:29:19
Eccentricity: 0.0113009
inclination: 47.2330°
perigee height: 1502 km
apogee height: 1682 km
right ascension of ascending node: 47.3968°
argument of perigee: 65.4425°
revolutions per day: 12.20108878
mean anomaly at epoch: 295.8095°
orbit number at epoch: 64526

The dashed part of the orbit path shows where the satellite is in the earth's shadow,  

DLR